Location: Kielce
(50.8833°N, 20.6167°E)
Time: 22:36:35
(UTC+02:00)

SR - Pass Details

Date: 20 April 2021
Orbit: 573 x 882 km, 66.7° (Epoch: 09 May)

Event Time Altitude Azimuth Distance (km) Brightness Sun altitude
Rises 17:11:25 0° 319° (NW) 3,478 ? 22.4°
Reaches altitude 10° 17:14:06 10° 312° (NW) 2,517 ? 22.0°
Maximum altitude 17:19:27 38° 246° (WSW) 1,254 ? 21.2°
Drops below altitude 10° 17:24:29 10° 179° (S) 2,363 ? 20.4°
Sets 17:26:56 0° 172° (S) 3,240 ? 20.0°
